Location: Colle Santa Colomba
(42.0333°N, 12.5667°E)
Time: 15:31:05
(UTC+00:00)

Tiangong - Pass Details

Date: 28 November 2022
Orbit: 383 x 387 km, 41.5° (Epoch: 27 January)

Event Time Altitude Azimuth Distance (km) Brightness Sun altitude
Rises 17:13:28 0° 210° (SSW) 2,254 2.4 -16.9°
Reaches altitude 10° 17:16:09 10° 185° (S) 1,408 0.9 -17.4°
Enters shadow 17:17:46 15° 155° (SSE) 1,166 0.2 -17.7°
